When you browse on this site, cookies collect data to enhance your experience and personalize the content and advertising you see.
Visit our Privacy Policy to learn more. By continuing to use the site, you agree to this use of cookies and data.
  • Em Portugal
  • Lista de países
  • Para 7 dias
  • Temperatura da água
  • Mapas de satélite
  • Mapa do tempo
  • Widgets de tempo
  • user-avatar
    Iniciar Sessão

    Previsão horária em Adelaide

    Hoje, 16 Dezembro, Domingo

    Tempo Temperatura Precipitação Vento Pressão Humidade
    00:00 +19°C° 0 mm 3 m/s 749 mmHg 87%
    01:00 +19°C° 0.1 mm 3 m/s 749 mmHg 88%
    02:00 +19°C° 0.1 mm 4 m/s 749 mmHg 88%
    03:00 +18°C° 0 mm 4 m/s 750 mmHg 90%
    04:00 +18°C° 0.1 mm 4 m/s 750 mmHg 89%
    05:00 +18°C° 0.1 mm 4 m/s 750 mmHg 88%
    06:00 +18°C° 0.1 mm 4 m/s 751 mmHg 88%
    07:00 +19°C° 0.1 mm 4 m/s 751 mmHg 87%
    08:00 +19°C° 0.1 mm 4 m/s 751 mmHg 86%
    09:00 +19°C° 0 mm 3 m/s 752 mmHg 84%
    10:00 +20°C° 0 mm 4 m/s 752 mmHg 79%
    11:00 +21°C° 0 mm 4 m/s 752 mmHg 75%
    12:00 +22°C° 0 mm 4 m/s 752 mmHg 70%
    13:00 +22°C° 0 mm 4 m/s 752 mmHg 70%
    14:00 +22°C° 0 mm 4 m/s 752 mmHg 69%
    15:00 +22°C° 0 mm 4 m/s 752 mmHg 69%
    16:00 +21°C° 0 mm 4 m/s 752 mmHg 71%
    17:00 +21°C° 0 mm 4 m/s 753 mmHg 72%
    18:00 +21°C° 0 mm 4 m/s 753 mmHg 74%
    19:00 +20°C° 0 mm 3 m/s 753 mmHg 77%
    20:00 +19°C° 0 mm 3 m/s 754 mmHg 80%
    21:00 +19°C° 0 mm 3 m/s 754 mmHg 83%
    22:00 +18°C° 0 mm 3 m/s 754 mmHg 84%
    23:00 +18°C° 0 mm 3 m/s 754 mmHg 86%

    Amanhã, 17 Dezembro, Segunda-feira

    Tempo Temperatura Precipitação Vento Pressão Humidade
    00:00 +18°C° 0 mm 3 m/s 755 mmHg 87%
    01:00 +18°C° 0 mm 2 m/s 755 mmHg 87%
    02:00 +18°C° 0 mm 2 m/s 754 mmHg 88%
    03:00 +17°C° 0 mm 2 m/s 754 mmHg 89%
    04:00 +18°C° 0 mm 2 m/s 755 mmHg 87%
    05:00 +18°C° 0 mm 3 m/s 755 mmHg 85%
    06:00 +18°C° 0 mm 3 m/s 755 mmHg 83%
    07:00 +19°C° 0 mm 3 m/s 756 mmHg 78%
    08:00 +20°C° 0 mm 3 m/s 756 mmHg 72%
    09:00 +21°C° 0 mm 3 m/s 756 mmHg 66%
    10:00 +24°C° 0 mm 3 m/s 756 mmHg 60%
    11:00 +25°C° 0 mm 3 m/s 756 mmHg 54%
    12:00 +27°C° 0 mm 3 m/s 756 mmHg 48%
    13:00 +27°C° 0 mm 4 m/s 755 mmHg 48%
    14:00 +27°C° 0 mm 5 m/s 755 mmHg 47%
    15:00 +28°C° 0 mm 5 m/s 755 mmHg 47%
    16:00 +26°C° 0 mm 6 m/s 755 mmHg 52%
    17:00 +24°C° 0 mm 6 m/s 755 mmHg 57%
    18:00 +23°C° 0 mm 6 m/s 755 mmHg 62%
    19:00 +22°C° 0 mm 6 m/s 755 mmHg 66%
    20:00 +21°C° 0 mm 5 m/s 756 mmHg 71%
    21:00 +20°C° 0 mm 5 m/s 756 mmHg 75%
    22:00 +20°C° 0 mm 4 m/s 756 mmHg 75%
    23:00 +20°C° 0 mm 4 m/s 756 mmHg 75%

    Depois de amanhã, 18 Dezembro, Terça-feira

    Tempo Temperatura Precipitação Vento Pressão Humidade
    00:00 +20°C° 0 mm 3 m/s 756 mmHg 76%
    01:00 +20°C° 0 mm 4 m/s 755 mmHg 75%
    02:00 +20°C° 0 mm 4 m/s 755 mmHg 74%
    03:00 +20°C° 0 mm 4 m/s 755 mmHg 73%
    04:00 +20°C° 0 mm 4 m/s 755 mmHg 72%
    05:00 +20°C° 0 mm 4 m/s 756 mmHg 72%
    06:00 +20°C° 0 mm 4 m/s 756 mmHg 72%
    07:00 +22°C° 0 mm 4 m/s 756 mmHg 66%
    08:00 +23°C° 0 mm 4 m/s 756 mmHg 60%
    09:00 +26°C° 0 mm 3 m/s 756 mmHg 55%
    10:00 +28°C° 0 mm 3 m/s 756 mmHg 49%
    11:00 +29°C° 0 mm 3 m/s 756 mmHg 44%
    12:00 +31°C° 0 mm 3 m/s 755 mmHg 38%
    13:00 +31°C° 0 mm 3 m/s 755 mmHg 37%
    14:00 +33°C° 0 mm 3 m/s 754 mmHg 35%
    15:00 +34°C° 0 mm 3 m/s 754 mmHg 33%
    16:00 +32°C° 0 mm 4 m/s 754 mmHg 36%
    17:00 +30°C° 0 mm 5 m/s 754 mmHg 39%
    18:00 +29°C° 0 mm 5 m/s 754 mmHg 42%
    19:00 +28°C° 0 mm 6 m/s 754 mmHg 43%
    20:00 +27°C° 0 mm 6 m/s 754 mmHg 45%
    21:00 +26°C° 0 mm 7 m/s 754 mmHg 46%
    22:00 +26°C° 0 mm 7 m/s 753 mmHg 42%
    23:00 +26°C° 0 mm 7 m/s 752 mmHg 38%

    19 Dezembro, Quarta-feira

    Tempo Temperatura Precipitação Vento Pressão Humidade
    00:00 +27°C° 0 mm 7 m/s 752 mmHg 33%
    01:00 +27°C° 0 mm 6 m/s 751 mmHg 34%
    02:00 +27°C° 0 mm 6 m/s 751 mmHg 34%
    03:00 +27°C° 0 mm 5 m/s 750 mmHg 34%
    04:00 +27°C° 0 mm 6 m/s 750 mmHg 35%
    05:00 +27°C° 0 mm 6 m/s 750 mmHg 36%
    06:00 +27°C° 0 mm 7 m/s 750 mmHg 37%
    07:00 +29°C° 0 mm 7 m/s 750 mmHg 34%
    08:00 +30°C° 0 mm 7 m/s 750 mmHg 30%
    09:00 +33°C° 0 mm 7 m/s 749 mmHg 27%
    10:00 +35°C° 0 mm 7 m/s 749 mmHg 25%
    11:00 +37°C° 0 mm 8 m/s 748 mmHg 24%
    12:00 +39°C° 0 mm 8 m/s 748 mmHg 23%
    13:00 +37°C° 0 mm 8 m/s 748 mmHg 29%
    14:00 +34°C° 0 mm 8 m/s 748 mmHg 35%
    15:00 +32°C° 0 mm 7 m/s 747 mmHg 41%
    16:00 +30°C° 0 mm 7 m/s 748 mmHg 46%
    17:00 +28°C° 0 mm 6 m/s 749 mmHg 51%
    18:00 +27°C° 0 mm 6 m/s 749 mmHg 56%
    19:00 +26°C° 0 mm 6 m/s 750 mmHg 62%
    20:00 +23°C° 0 mm 6 m/s 750 mmHg 67%
    21:00 +22°C° 0 mm 5 m/s 751 mmHg 73%
    22:00 +21°C° 0 mm 5 m/s 751 mmHg 76%
    23:00 +21°C° 0 mm 5 m/s 751 mmHg 79%

    20 Dezembro, Quinta-feira

    Tempo Temperatura Precipitação Vento Pressão Humidade
    00:00 +20°C° 0 mm 5 m/s 751 mmHg 82%
    01:00 +20°C° 0 mm 5 m/s 751 mmHg 83%
    02:00 +19°C° 0 mm 5 m/s 751 mmHg 85%
    03:00 +19°C° 0 mm 5 m/s 751 mmHg 86%
    04:00 +19°C° 0 mm 5 m/s 752 mmHg 84%
    05:00 +19°C° 0 mm 6 m/s 753 mmHg 83%
    06:00 +19°C° 0 mm 6 m/s 753 mmHg 81%
    07:00 +19°C° 0 mm 6 m/s 754 mmHg 78%
    08:00 +20°C° 0 mm 6 m/s 755 mmHg 75%
    09:00 +20°C° 0 mm 6 m/s 755 mmHg 72%
    10:00 +20°C° 0 mm 6 m/s 755 mmHg 69%
    11:00 +21°C° 0 mm 7 m/s 755 mmHg 67%
    12:00 +21°C° 0 mm 7 m/s 755 mmHg 64%
    13:00 +21°C° 0 mm 7 m/s 755 mmHg 62%
    14:00 +21°C° 0 mm 7 m/s 755 mmHg 60%
    15:00 +21°C° 0 mm 7 m/s 755 mmHg 58%
    16:00 +20°C° 0 mm 7 m/s 756 mmHg 61%
    17:00 +19°C° 0 mm 6 m/s 756 mmHg 63%
    18:00 +19°C° 0 mm 6 m/s 756 mmHg 65%
    19:00 +17°C° 0 mm 6 m/s 756 mmHg 68%
    20:00 +16°C° 0 mm 5 m/s 757 mmHg 71%
    21:00 +15°C° 0 mm 5 m/s 757 mmHg 74%
    22:00 +15°C° 0 mm 5 m/s 757 mmHg 76%
    23:00 +15°C° 0 mm 4 m/s 757 mmHg 77%

    21 Dezembro, Sexta-feira

    Tempo Temperatura Precipitação Vento Pressão Humidade
    00:00 +15°C° 0 mm 4 m/s 756 mmHg 79%
    01:00 +15°C° 0 mm 5 m/s 756 mmHg 80%
    02:00 +15°C° 0 mm 5 m/s 756 mmHg 81%
    03:00 +15°C° 0 mm 5 m/s 756 mmHg 82%
    04:00 +16°C° 0.1 mm 5 m/s 756 mmHg 81%
    05:00 +16°C° 0.1 mm 5 m/s 756 mmHg 79%
    06:00 +17°C° 0.1 mm 5 m/s 757 mmHg 78%
    07:00 +19°C° 0.1 mm 5 m/s 757 mmHg 72%
    08:00 +20°C° 0.1 mm 5 m/s 757 mmHg 66%
    09:00 +21°C° 0.1 mm 5 m/s 757 mmHg 60%
    10:00 +21°C° 0.1 mm 5 m/s 757 mmHg 59%
    11:00 +21°C° 0.1 mm 5 m/s 757 mmHg 59%
    12:00 +21°C° 0.1 mm 5 m/s 757 mmHg 59%
    13:00 +21°C° 0 mm 6 m/s 757 mmHg 58%
    14:00 +21°C° 0 mm 6 m/s 757 mmHg 57%
    15:00 +21°C° 0 mm 6 m/s 757 mmHg 57%
    16:00 +20°C° 0 mm 6 m/s 757 mmHg 58%
    17:00 +19°C° 0 mm 6 m/s 757 mmHg 60%
    18:00 +17°C° 0 mm 6 m/s 758 mmHg 62%
    19:00 +17°C° 0 mm 6 m/s 758 mmHg 65%
    20:00 +16°C° 0 mm 6 m/s 759 mmHg 68%
    21:00 +15°C° 0 mm 5 m/s 759 mmHg 71%
    22:00 +15°C° 0 mm 5 m/s 759 mmHg 73%
    23:00 +14°C° 0 mm 5 m/s 759 mmHg 75%
    Mostrar mais